Back to catalog

FENGYUN 1C DEB

AliveSSO
NORAD 31248·DEBRIS·🇨🇳 China

Launched May 10, 1999 from Taiyuan Satellite Launch Center

Loading…

Next Passes (next 24 hours)

TLE

FreshSource: Space-Track

Epoch: Sep 14, 2026, 15:47 UTC

1 31248U 99025BME 26257.65781655  .00000392  00000-0  32011-3 0  9992
2 31248  99.2355 319.8669 0109114 283.4871 231.4962 13.93154911986652

Track FENGYUN 1C DEB in real time with AllMySat

Download on the App Store